STARLINK-35825

Last updated on Wed Dec 31 2025 00:02:06 GMT+0000 (Coordinated Universal Time)

1 66567U 25268L 25364.58335648 .00070877 00000+0 24999-2 0 9998 2 66567 43.0007 17.0606 0001389 296.1972 78.6280 15.28365342 5974
UTC large
Height (km)
Speed (km/s)
/
Latitude / Longitude
Inclination (degrees)
Orbital Period (minutes)
Azimuth
Elevation
Range (km)
Doppler Factor

Next 0 passes for location: London (51.5072 / 0.1276)

Sorry there are no passes over London.